Miscellaneous Local Product
Issued by NWS Hastings, NE

Home | Current Version | Previous Version | Graphics & Text | Print | Product List | Glossary On
Versions: 1 2 3 4 5 6 7 8 9 10 11 12 13 14 15 16 17 18 19 20 21 22 23 24 25 26 27 28 29 30 31 32 33 34 35 36 37 38 39 40 41 42 43 44 45 46 47 48 49 50
000
AXUS43 KGID 211002
MISGRI

GID CWA HOURLY WEATHER ROUNDUP
NATIONAL WEATHER SERVICE HASTINGS NE
500 AM CDT THU MAY 21 2015

NOTE: "FAIR" INDICATES FEW OR NO CLOUDS BELOW 12,000 FEET WITH NO
SIGNIFICANT WEATHER AND/OR OBSTRUCTIONS TO VISIBILITY.

...SOUTH CENTRAL NEBRASKA...

CITY           SKY/WX    TMP DP  RH WIND       PRES   REMARKS
GRAND ISLAND   CLEAR     37  35  92 W7        30.31R WCI  32
HASTINGS       CLEAR     39  37  92 W7        30.30R WCI  34
KEARNEY        CLEAR     37  34  87 W3        30.31S
ORD            CLEAR     32  30  92 CALM      30.28R
YORK           CLEAR     39  37  93 W7        30.28S WCI  34
AURORA         CLEAR     36  36 100 W5        30.29R WCI  32
LEXINGTON        N/A     35  34  96 N3        30.31S FOG
HOLDREGE       CLEAR     37  36  93 W5        30.31S WCI  34
HEBRON         CLEAR     40  38  93 W5        30.30R

...NEBRASKA PANHANDLE...

CITY           SKY/WX    TMP DP  RH WIND       PRES   REMARKS
CHADRON        CLEAR     29  27  92 CALM      30.28F
ALLIANCE       CLEAR     29  27  92 S5        30.27F WCI  24
SCOTTSBLUFF    CLOUDY    41  36  82 E7        30.28S
SIDNEY         CLOUDY    41  37  86 S7        30.29S

...WESTERN AND NORTH CENTRAL NEBRASKA...

CITY           SKY/WX    TMP DP  RH WIND       PRES   REMARKS
VALENTINE      CLEAR     35  33  92 W8        30.28S WCI  29
AINSWORTH      CLEAR     38  35  89 W7        30.28S WCI  33
ONEILL         CLEAR     40  37  89 W9        30.26S WCI  34
BROKEN BOW     CLEAR     36  33  89 CALM      30.29S
IMPERIAL       CLOUDY    43  40  89 SE3       30.31S
NORTH PLATTE   CLEAR     34  34 100 NW3       30.31S
MCCOOK         CLEAR     36  36 100 CALM      30.31F

...EASTERN NEBRASKA...

CITY           SKY/WX    TMP DP  RH WIND       PRES   REMARKS
NORFOLK        CLEAR     41  37  86 W10       30.24S
SO SIOUX CITY  CLEAR     42  36  79 NW5       30.22R
TEKAMAH        CLEAR     43  37  79 W9        30.22F
COLUMBUS       CLEAR     39  30  70 W5        30.29R
ALBION         CLEAR     37  33  87 NW3       30.27S
OMAHA EPPLEY   CLEAR     41  38  89 CALM      30.25F
MILLARD          N/A     38  37  97 CALM      30.25F FOG
LINCOLN        CLEAR     40  38  93 CALM      30.29R
NEBRASKA CITY  CLEAR     40  40  97 NW3       30.26S
BEATRICE       FOG       38  37  99 CALM      30.28S VSB 1/4
FALLS CITY     CLEAR     41  40  96 NW7       30.27R

...NORTHERN KANSAS...

CITY           SKY/WX    TMP DP  RH WIND       PRES   REMARKS
GOODLAND       CLOUDY    43  40  89 CALM      30.31R
HILL CITY      CLEAR     38  36  92 NW3       30.32F
NORTON         SUNNY     36  34  93 W5        30.31F WCI  32
PHILLIPSBURG   CLEAR     39  39 100 W6        30.33S WCI  35
SMITH CENTER   CLEAR     36  36 100 CALM      30.32S
HAYS           CLEAR     39  30  70 NW6       30.31F WCI  35
RUSSELL        CLEAR     38  37  97 NW6       30.30S WCI  33
CONCORDIA      CLEAR     40  38  93 W6        30.30R
SALINA         CLEAR     42  39  89 NW5       30.30S
TOPEKA         PTCLDY    45  43  93 W5        30.28R



USA.gov is the U.S. government's official web portal to all federal, state and local government web resources and services.